Find Starlink 32770

NORAD ID: 62741 Int'l Des: 2025-014 Owner: SPXS Country: US Constellation: starlink operational
LEOCIRCULAR

Current View

Loading 3D Globe...

About Starlink 32770

Starlink 32770 (NORAD 62741) is a starlink constellation satellite (v2 mini) launched Jan 21, 2025 by SPXS of US. It operates in LEO, CIRCULAR orbit with a mass of 730.00 kg.

Upcoming Passes

Passes for default location (London). Set your location on the main map for personalized predictions.

Altitude History

Loading altitude history...

Two-Line Element Set

1 62741U 25014G 26265.33171266 .00007552 00000-0 28366-3 0 9999
2 62741 43.0013 123.6595 0002011 272.9289 87.1333 15.27581049 93332
Epoch: Sep 22, 2026 • Age: 19 hours

Current Status

Altitude 484.5 km
Apogee / Perigee N/A
Velocity 7.63 km/s
Sub-Earth Point 28.57°N, 149.15°W
Launch Date Jan 21, 2025
Age 1.6 years
Type internet

Technical Details

Classification Payload
Mass 730.00 kg
Dry Mass 700.00 kg
Length 0.30 m
Span 29.00 m
Shape ? Box + pan
Manufacturer SPXS
Bus Type Starlink V2M
Phase Status In Orbit
Owner/State SPXS/US

Most Searched